Location: Peterborough
(44.3091°N, 78.3197°W)
Time: 18:53:34
(UTC-04:00)

A-11 Canister half - Pass Details

Date: 27 March 2023
Orbit: 1526 x 1682 km, 47.3° (Epoch: 06 June)

Event Time Altitude Azimuth Distance (km) Brightness Sun altitude
Rises 19:53:23 0° 275° (W) 4,907 14.8 -4.2°
Reaches altitude 10° 19:56:35 10° 278° (W) 3,904 13.1 -4.8°
Maximum altitude 20:06:36 76° 4° (N) 1,665 9.3 -6.6°
Drops below altitude 10° 20:16:16 10° 90° (E) 3,780 10.4 -8.3°
Enters shadow 20:16:39 - 91° (E) 3,899 10.5 -8.3°
